Terminal Aerodrome Forecast
Issued by NWS

Current Version | Previous Version | Text Only | Print | Product List | Glossary Off
Versions: 1 2 3 4 5 6 7 8 9 10 11 12 13

000
FTUS41 KPBZ 251137
TAFMGW
TAF
KMGW 251137Z 2512/2612 07005KT P6SM BKN080
     FM252000 09008KT 3SM -SHRA OVC025
     FM260100 VRB05KT 6SM -RA OVC040
     FM261000 VRB05KT P6SM BKN040=

USA.gov is the U.S. government's official web portal to all federal, state and local government web resources and services.